| time (UTC) | temp C | wind direction | speed KPH | gust KPH | rain 1hr cm | rain 24hr cm | rain mn cm | humidity % | barometer mb |
| 20260903132840 | 26 | 131 | 0.0 | 0.0 | 0.00 | 0.00 | 0.00 | 91 | 1019.7 |
| 20260903132336 | 25 | 104 | 0.0 | 0.0 | 0.00 | 0.00 | 0.00 | 92 | 1019.5 |
| 20260903131835 | 25 | 102 | 0.0 | 0.0 | 0.00 | 0.00 | 0.00 | 93 | 1019.4 |
| 20260903131330 | 25 | 98 | 0.0 | 0.0 | 0.00 | 0.00 | 0.00 | 94 | 1019.5 |
| 20260903130829 | 25 | 97 | 0.0 | 0.0 | 0.00 | 0.00 | 0.00 | 94 | 1019.5 |
| 20260903130324 | 25 | 102 | 0.0 | 0.0 | 0.00 | 0.00 | 0.00 | 94 | 1019.5 |
| 20260903125823 | 25 | 78 | 0.0 | 0.0 | 0.00 | 0.00 | 0.00 | 94 | 1019.6 |
| 20260903125318 | 24 | 135 | 0.0 | 0.0 | 0.00 | 0.00 | 0.00 | 95 | 1019.6 |
| 20260903124817 | 24 | 112 | 0.0 | 0.0 | 0.00 | 0.00 | 0.00 | 95 | 1019.3 |
| 20260903124313 | 24 | 67 | 0.0 | 0.0 | 0.00 | 0.00 | 0.00 | 96 | 1019.6 |
| 20260903123811 | 23 | 104 | 0.0 | 0.0 | 0.00 | 0.00 | 0.00 | 97 | 1019.5 |
| 20260903123311 | 23 | 129 | 0.0 | 0.0 | 0.00 | 0.00 | 0.00 | 97 | 1019.6 |
| 20260903122810 | 23 | 102 | 0.0 | 0.0 | 0.00 | 0.00 | 0.00 | 98 | 1019.6 |
| 20260903122306 | 23 | 69 | 0.0 | 0.0 | 0.00 | 0.00 | 0.00 | 99 | 1019.4 |
| 20260903121803 | 23 | 82 | 0.0 | 0.0 | 0.00 | 0.00 | 0.00 | 99 | 1019.5 |
| 20260903121259 | 22 | 96 | 0.0 | 0.0 | 0.00 | 0.00 | 0.00 | 99 | 1019.8 |
| 20260903120755 | 22 | 108 | 0.0 | 0.0 | 0.00 | 0.00 | 0.00 | 99 | 1019.8 |
| 20260903120254 | 22 | 81 | 0.0 | 0.0 | 0.00 | 0.00 | 0.00 | 99 | 1019.4 |
| 20260903115752 | 22 | 81 | 0.0 | 0.0 | 0.00 | 0.00 | 0.00 | 99 | 1019.3 |
| 20260903115248 | 22 | 85 | 0.0 | 0.0 | 0.00 | 0.00 | 0.00 | 99 | 1019.3 |
| 20260903114748 | 22 | 85 | 0.0 | 0.0 | 0.00 | 0.00 | 0.00 | 99 | 1019.2 |
| 20260903114244 | 22 | 99 | 0.0 | 0.0 | 0.00 | 0.00 | 0.00 | 99 | 1019.3 |
| 20260903113739 | 22 | 99 | 0.0 | 0.0 | 0.00 | 0.00 | 0.00 | 99 | 1019.1 |
| 20260903113235 | 22 | 99 | 0.0 | 0.0 | 0.00 | 0.00 | 0.00 | 99 | 1019.3 |
| 20260903112730 | 22 | 99 | 0.0 | 0.0 | 0.00 | 0.00 | 0.00 | 99 | 1019.2 |
| 20260903112226 | 22 | 99 | 0.0 | 0.0 | 0.00 | 0.00 | 0.00 | 99 | 1018.9 |
| 20260903111724 | 22 | 98 | 0.0 | 0.0 | 0.00 | 0.00 | 0.00 | 99 | 1019.3 |
| 20260903111220 | 22 | 98 | 0.0 | 0.0 | 0.00 | 0.00 | 0.00 | 99 | 1019.1 |
| 20260903110716 | 22 | 98 | 0.0 | 0.0 | 0.00 | 0.00 | 0.00 | 99 | 1019.1 |
| 20260903110212 | 22 | 98 | 0.0 | 0.0 | 0.00 | 0.00 | 0.00 | 99 | 1018.9 |
| 20260903105711 | 22 | 98 | 0.0 | 0.0 | 0.00 | 0.00 | 0.00 | 99 | 1018.9 |
| 20260903105206 | 22 | 98 | 0.0 | 0.0 | 0.00 | 0.00 | 0.00 | 99 | 1018.8 |
| 20260903104706 | 22 | 95 | 0.0 | 0.0 | 0.00 | 0.00 | 0.00 | 99 | 1018.6 |
| 20260903104201 | 22 | 96 | 0.0 | 0.0 | 0.00 | 0.00 | 0.00 | 99 | 1018.8 |
| 20260903103657 | 22 | 94 | 0.0 | 0.0 | 0.00 | 0.00 | 0.00 | 99 | 1018.8 |
| 20260903103153 | 22 | 94 | 0.0 | 0.0 | 0.00 | 0.00 | 0.00 | 99 | 1018.8 |
| 20260903102648 | 22 | 94 | 0.0 | 0.0 | 0.00 | 0.00 | 0.00 | 99 | 1018.9 |
| 20260903102148 | 22 | 93 | 0.0 | 0.0 | 0.00 | 0.00 | 0.00 | 99 | 1018.8 |
| 20260903101647 | 22 | 89 | 0.0 | 0.0 | 0.00 | 0.00 | 0.00 | 99 | 1018.6 |
| 20260903101142 | 22 | 96 | 0.0 | 0.0 | 0.00 | 0.00 | 0.00 | 99 | 1018.5 |
| 20260903100637 | 22 | 79 | 0.0 | 0.0 | 0.00 | 0.00 | 0.00 | 99 | 1018.2 |
| 20260903100137 | 22 | 70 | 0.0 | 0.0 | 0.00 | 0.00 | 0.00 | 99 | 1018.6 |
| 20260903095634 | 22 | 70 | 0.0 | 0.0 | 0.00 | 0.00 | 0.00 | 99 | 1018.5 |
| 20260903095134 | 22 | 70 | 0.0 | 0.0 | 0.00 | 0.00 | 0.00 | 99 | 1018.3 |
| 20260903094629 | 23 | 78 | 0.0 | 0.0 | 0.00 | 0.00 | 0.00 | 99 | 1018.4 |
| 20260903094125 | 23 | 78 | 0.0 | 0.0 | 0.00 | 0.00 | 0.00 | 99 | 1018.3 |
| 20260903093620 | 23 | 80 | 0.0 | 0.0 | 0.00 | 0.00 | 0.00 | 99 | 1018.4 |
| 20260903093115 | 23 | 80 | 0.0 | 0.0 | 0.00 | 0.00 | 0.00 | 99 | 1018.5 |
| 20260903092615 | 23 | 80 | 0.0 | 0.0 | 0.00 | 0.00 | 0.00 | 99 | 1018.6 |
| 20260903092110 | 23 | 75 | 0.0 | 0.0 | 0.00 | 0.00 | 0.00 | 99 | 1018.5 |
| 20260903091608 | 23 | 87 | 0.0 | 0.0 | 0.00 | 0.00 | 0.00 | 99 | 1018.5 |
| 20260903091102 | 23 | 75 | 0.0 | 0.0 | 0.00 | 0.00 | 0.00 | 99 | 1018.3 |
| 20260903090559 | 23 | 75 | 0.0 | 0.0 | 0.00 | 0.00 | 0.00 | 99 | 1018.4 |
| 20260903090057 | 23 | 74 | 0.0 | 0.0 | 0.00 | 0.00 | 0.00 | 99 | 1018.4 |
| 20260903085555 | 23 | 78 | 0.0 | 0.0 | 0.00 | 0.00 | 0.00 | 99 | 1018.6 |
| 20260903085052 | 23 | 81 | 0.0 | 0.0 | 0.00 | 0.00 | 0.00 | 99 | 1018.8 |
| 20260903084549 | 23 | 68 | 0.0 | 0.0 | 0.00 | 0.00 | 0.00 | 99 | 1018.2 |
| 20260903084044 | 23 | 70 | 0.0 | 0.0 | 0.00 | 0.00 | 0.00 | 99 | 1018.6 |
| 20260903083540 | 23 | 69 | 0.0 | 0.0 | 0.00 | 0.00 | 0.00 | 99 | 1018.8 |
| 20260903083040 | 23 | 69 | 0.0 | 0.0 | 0.00 | 0.00 | 0.00 | 99 | 1018.5 |
| 20260903082534 | 23 | 69 | 0.0 | 0.0 | 0.00 | 0.00 | 0.00 | 99 | 1018.3 |
| 20260903082030 | 23 | 69 | 0.0 | 0.0 | 0.00 | 0.00 | 0.00 | 98 | 1018.6 |
| 20260903081525 | 23 | 70 | 0.0 | 0.0 | 0.00 | 0.00 | 0.00 | 98 | 1018.6 |
| 20260903081021 | 23 | 75 | 0.0 | 0.0 | 0.00 | 0.00 | 0.00 | 98 | 1018.6 |
| 20260903080517 | 23 | 82 | 0.0 | 0.0 | 0.00 | 0.00 | 0.00 | 98 | 1018.6 |
| 20260903080013 | 23 | 64 | 0.0 | 0.0 | 0.00 | 0.00 | 0.00 | 98 | 1018.3 |
| 20260903075508 | 23 | 70 | 0.0 | 0.0 | 0.00 | 0.00 | 0.00 | 97 | 1018.4 |
| 20260903075003 | 23 | 59 | 0.0 | 0.0 | 0.00 | 0.00 | 0.00 | 97 | 1018.2 |
| 20260903074502 | 23 | 70 | 0.0 | 0.0 | 0.00 | 0.00 | 0.00 | 97 | 1018.2 |
| 20260903073957 | 23 | 33 | 1.6 | 1.6 | 0.00 | 0.00 | 0.00 | 97 | 1018.2 |
| 20260903073452 | 23 | 80 | 0.0 | 0.0 | 0.00 | 0.00 | 0.00 | 97 | 1018.2 |
| 20260903072948 | 23 | 81 | 0.0 | 0.0 | 0.00 | 0.00 | 0.00 | 97 | 1018.5 |
| 20260903072444 | 23 | 79 | 0.0 | 0.0 | 0.00 | 0.00 | 0.00 | 96 | 1018.2 |
| 20260903071941 | 23 | 86 | 0.0 | 0.0 | 0.00 | 0.00 | 0.00 | 96 | 1018.3 |
| 20260903071436 | 23 | 74 | 0.0 | 0.0 | 0.00 | 0.00 | 0.00 | 96 | 1018.0 |
| 20260903070932 | 23 | 74 | 0.0 | 0.0 | 0.00 | 0.00 | 0.00 | 96 | 1018.4 |
| 20260903070432 | 23 | 73 | 0.0 | 0.0 | 0.00 | 0.00 | 0.00 | 96 | 1018.1 |
| 20260903065927 | 23 | 90 | 0.0 | 0.0 | 0.00 | 0.00 | 0.00 | 95 | 1018.3 |
| 20260903065426 | 23 | 90 | 0.0 | 0.0 | 0.00 | 0.00 | 0.00 | 95 | 1018.1 |
| 20260903064926 | 23 | 90 | 0.0 | 0.0 | 0.00 | 0.00 | 0.00 | 95 | 1018.3 |
| 20260903064421 | 23 | 90 | 0.0 | 0.0 | 0.00 | 0.00 | 0.00 | 95 | 1018.2 |
| 20260903063917 | 23 | 90 | 0.0 | 0.0 | 0.00 | 0.00 | 0.00 | 94 | 1018.2 |
| 20260903063412 | 23 | 90 | 0.0 | 0.0 | 0.00 | 0.00 | 0.00 | 94 | 1018.4 |
| 20260903062908 | 23 | 94 | 0.0 | 0.0 | 0.00 | 0.00 | 0.00 | 94 | 1018.2 |
| 20260903062408 | 23 | 93 | 0.0 | 0.0 | 0.00 | 0.00 | 0.00 | 94 | 1018.4 |
| 20260903061904 | 23 | 93 | 0.0 | 0.0 | 0.00 | 0.00 | 0.00 | 94 | 1018.3 |
| 20260903061403 | 24 | 93 | 0.0 | 0.0 | 0.00 | 0.00 | 0.00 | 93 | 1018.5 |
| 20260903060859 | 24 | 93 | 0.0 | 0.0 | 0.00 | 0.00 | 0.00 | 93 | 1018.4 |
| 20260903060358 | 24 | 94 | 0.0 | 0.0 | 0.00 | 0.00 | 0.00 | 93 | 1018.3 |
| 20260903055856 | 24 | 103 | 0.0 | 0.0 | 0.00 | 0.00 | 0.00 | 93 | 1018.5 |
| 20260903055354 | 24 | 103 | 0.0 | 0.0 | 0.00 | 0.00 | 0.00 | 93 | 1018.4 |
| 20260903054850 | 24 | 103 | 0.0 | 0.0 | 0.00 | 0.00 | 0.00 | 92 | 1018.4 |
| 20260903054349 | 24 | 103 | 0.0 | 0.0 | 0.00 | 0.00 | 0.00 | 92 | 1018.5 |
| 20260903053846 | 24 | 103 | 0.0 | 0.0 | 0.00 | 0.00 | 0.00 | 91 | 1018.5 |
| 20260903053341 | 24 | 103 | 0.0 | 0.0 | 0.00 | 0.00 | 0.00 | 91 | 1018.5 |
| 20260903052837 | 24 | 103 | 0.0 | 0.0 | 0.00 | 0.00 | 0.00 | 91 | 1018.6 |
| 20260903052332 | 24 | 103 | 0.0 | 0.0 | 0.00 | 0.00 | 0.00 | 90 | 1018.9 |
| 20260903051828 | 25 | 104 | 0.0 | 0.0 | 0.00 | 0.00 | 0.00 | 90 | 1018.6 |
| 20260903051323 | 25 | 104 | 0.0 | 0.0 | 0.00 | 0.00 | 0.00 | 89 | 1018.6 |
| 20260903050819 | 25 | 101 | 0.0 | 0.0 | 0.00 | 0.00 | 0.00 | 89 | 1018.5 |
| 20260903050318 | 25 | 90 | 0.0 | 0.0 | 0.00 | 0.00 | 0.00 | 88 | 1018.6 |
| 20260903045813 | 25 | 90 | 0.0 | 0.0 | 0.00 | 0.00 | 0.00 | 88 | 1018.8 |
| 20260903045308 | 25 | 89 | 0.0 | 0.0 | 0.00 | 0.00 | 0.00 | 87 | 1018.9 |
| 20260903044804 | 25 | 103 | 0.0 | 0.0 | 0.00 | 0.00 | 0.00 | 87 | 1018.9 |
| 20260903044300 | 25 | 71 | 0.0 | 0.0 | 0.00 | 0.00 | 0.00 | 87 | 1018.6 |
| 20260903043756 | 25 | 61 | 0.0 | 0.0 | 0.00 | 0.00 | 0.00 | 86 | 1018.8 |
| 20260903043256 | 25 | 69 | 0.0 | 0.0 | 0.00 | 0.00 | 0.00 | 86 | 1018.6 |
| 20260903042755 | 25 | 94 | 0.0 | 0.0 | 0.00 | 0.00 | 0.00 | 85 | 1018.8 |
| 20260903042251 | 25 | 94 | 0.0 | 0.0 | 0.00 | 0.00 | 0.00 | 85 | 1019.0 |
| 20260903041746 | 25 | 94 | 0.0 | 0.0 | 0.00 | 0.00 | 0.00 | 84 | 1018.8 |
| 20260903041243 | 25 | 94 | 0.0 | 0.0 | 0.00 | 0.00 | 0.00 | 83 | 1019.0 |
| 20260903040737 | 26 | 94 | 0.0 | 0.0 | 0.00 | 0.00 | 0.00 | 83 | 1018.9 |
| 20260903040237 | 26 | 93 | 0.0 | 0.0 | 0.00 | 0.00 | 0.00 | 83 | 1018.8 |
| 20260903035733 | 26 | 71 | 0.0 | 0.0 | 0.00 | 0.00 | 0.00 | 83 | 1018.5 |
| 20260903035229 | 26 | 70 | 0.0 | 0.0 | 0.00 | 0.00 | 0.00 | 82 | 1018.5 |
| 20260903034729 | 26 | 70 | 0.0 | 0.0 | 0.00 | 0.00 | 0.00 | 81 | 1018.8 |
| 20260903034224 | 26 | 75 | 0.0 | 0.0 | 0.00 | 0.00 | 0.00 | 81 | 1018.5 |
| 20260903033719 | 26 | 74 | 0.0 | 0.0 | 0.00 | 0.00 | 0.00 | 82 | 1018.9 |
| 20260903033220 | 26 | 76 | 0.0 | 0.0 | 0.00 | 0.00 | 0.00 | 82 | 1018.8 |
| 20260903032714 | 26 | 69 | 0.0 | 0.0 | 0.00 | 0.00 | 0.00 | 82 | 1018.8 |
| 20260903032210 | 26 | 70 | 0.0 | 0.0 | 0.00 | 0.00 | 0.00 | 80 | 1018.6 |
| 20260903031706 | 26 | 69 | 0.0 | 0.0 | 0.00 | 0.00 | 0.00 | 80 | 1018.6 |
| 20260903031205 | 27 | 69 | 0.0 | 0.0 | 0.00 | 0.00 | 0.00 | 78 | 1019.0 |
| 20260903030701 | 27 | 69 | 0.0 | 0.0 | 0.00 | 0.00 | 0.00 | 76 | 1018.9 |
| 20260903030157 | 27 | 70 | 0.0 | 0.0 | 0.00 | 0.00 | 0.00 | 76 | 1018.8 |
| 20260903025652 | 27 | 70 | 0.0 | 0.0 | 0.00 | 0.00 | 0.00 | 76 | 1019.0 |
| 20260903025148 | 27 | 48 | 1.6 | 1.6 | 0.00 | 0.00 | 0.00 | 76 | 1018.8 |
| 20260903024642 | 27 | 74 | 0.0 | 0.0 | 0.00 | 0.00 | 0.00 | 76 | 1018.5 |
| 20260903024141 | 27 | 40 | 0.0 | 1.6 | 0.00 | 0.00 | 0.00 | 76 | 1019.1 |
| 20260903023638 | 27 | 44 | 1.6 | 1.6 | 0.00 | 0.00 | 0.00 | 76 | 1018.8 |
| 20260903023137 | 27 | 71 | 0.0 | 0.0 | 0.00 | 0.00 | 0.00 | 76 | 1018.9 |
| 20260903022632 | 27 | 83 | 0.0 | 0.0 | 0.00 | 0.00 | 0.00 | 75 | 1018.8 |
| 20260903022131 | 27 | 83 | 0.0 | 0.0 | 0.00 | 0.00 | 0.00 | 75 | 1018.6 |
| 20260903021626 | 28 | 100 | 0.0 | 0.0 | 0.00 | 0.00 | 0.00 | 75 | 1018.8 |
| 20260903021126 | 28 | 99 | 0.0 | 0.0 | 0.00 | 0.00 | 0.00 | 74 | 1018.8 |
| 20260903020622 | 28 | 71 | 0.0 | 0.0 | 0.00 | 0.00 | 0.00 | 74 | 1018.5 |
| 20260903020121 | 28 | 62 | 0.0 | 0.0 | 0.00 | 0.00 | 0.00 | 74 | 1018.5 |
| 20260903015617 | 28 | 98 | 0.0 | 0.0 | 0.00 | 0.00 | 0.00 | 74 | 1018.5 |
| 20260903015113 | 28 | 60 | 0.0 | 0.0 | 0.00 | 0.00 | 0.00 | 74 | 1018.5 |
| 20260903014612 | 28 | 62 | 0.0 | 0.0 | 0.00 | 0.00 | 0.00 | 74 | 1018.5 |
| 20260903014113 | 28 | 84 | 0.0 | 0.0 | 0.00 | 0.00 | 0.00 | 73 | 1018.4 |
| 20260903013613 | 28 | 49 | 1.6 | 1.6 | 0.00 | 0.00 | 0.00 | 73 | 1018.3 |
| 20260903013107 | 28 | 102 | 0.0 | 0.0 | 0.00 | 0.00 | 0.00 | 72 | 1018.0 |
| 20260903012606 | 28 | 103 | 0.0 | 0.0 | 0.00 | 0.00 | 0.00 | 72 | 1018.1 |
| 20260903012106 | 28 | 88 | 0.0 | 0.0 | 0.00 | 0.00 | 0.00 | 72 | 1018.1 |
| 20260903011605 | 28 | 92 | 0.0 | 0.0 | 0.00 | 0.00 | 0.00 | 72 | 1017.9 |
| 20260903011105 | 29 | 98 | 0.0 | 0.0 | 0.00 | 0.00 | 0.00 | 71 | 1017.6 |
| 20260903010601 | 29 | 96 | 0.0 | 0.0 | 0.00 | 0.00 | 0.00 | 70 | 1017.6 |
| 20260903010059 | 30 | 98 | 0.0 | 0.0 | 0.00 | 0.00 | 0.00 | 69 | 1017.6 |
| 20260903005554 | 30 | 59 | 0.0 | 0.0 | 0.00 | 0.00 | 0.00 | 69 | 1017.5 |
| 20260903005049 | 30 | 58 | 0.0 | 0.0 | 0.00 | 0.00 | 0.00 | 68 | 1017.5 |
| 20260903004544 | 30 | 69 | 1.6 | 1.6 | 0.00 | 0.00 | 0.00 | 67 | 1017.5 |
| 20260903004040 | 30 | 60 | 0.0 | 1.6 | 0.00 | 0.00 | 0.00 | 68 | 1017.5 |
| 20260903003535 | 30 | 17 | 1.6 | 1.6 | 0.00 | 0.00 | 0.00 | 67 | 1017.5 |
| 20260903003030 | 30 | 358 | 1.6 | 3.2 | 0.00 | 0.00 | 0.00 | 66 | 1017.5 |
| 20260903002525 | 30 | 51 | 0.0 | 1.6 | 0.00 | 0.00 | 0.00 | 67 | 1017.6 |
| 20260903002019 | 30 | 33 | 3.2 | 3.2 | 0.00 | 0.00 | 0.00 | 68 | 1017.6 |
| 20260903001514 | 30 | 52 | 0.0 | 0.0 | 0.00 | 0.00 | 0.00 | 67 | 1017.4 |
| 20260903001013 | 30 | 74 | 0.0 | 0.0 | 0.00 | 0.00 | 0.00 | 68 | 1017.3 |
| 20260903000509 | 30 | 25 | 1.6 | 1.6 | 0.00 | 0.00 | 0.00 | 68 | 1017.4 |
| 20260903000008 | 30 | 14 | 3.2 | 3.2 | 0.00 | 0.00 | 0.00 | 65 | 1017.2 |
| 20260902235502 | 30 | 68 | 0.0 | 0.0 | 0.00 | 0.00 | 0.00 | 66 | 1017.1 |
| 20260902234957 | 31 | 73 | 0.0 | 0.0 | 0.00 | 0.00 | 0.00 | 64 | 1017.2 |
| 20260902234451 | 31 | 57 | 0.0 | 0.0 | 0.00 | 0.00 | 0.00 | 62 | 1017.2 |
| 20260902233950 | 31 | 61 | 0.0 | 1.6 | 0.00 | 0.00 | 0.00 | 63 | 1017.2 |
| 20260902233449 | 31 | 82 | 0.0 | 0.0 | 0.00 | 0.00 | 0.00 | 61 | 1017.2 |
| 20260902232944 | 31 | 75 | 0.0 | 0.0 | 0.00 | 0.00 | 0.00 | 60 | 1017.3 |
| 20260902232439 | 32 | 53 | 0.0 | 1.6 | 0.00 | 0.00 | 0.00 | 60 | 1017.4 |
| 20260902231939 | 32 | 98 | 0.0 | 0.0 | 0.00 | 0.00 | 0.00 | 60 | 1017.5 |
| 20260902231434 | 32 | 55 | 0.0 | 0.0 | 0.00 | 0.00 | 0.00 | 59 | 1017.6 |
| 20260902230934 | 32 | 37 | 0.0 | 1.6 | 0.00 | 0.00 | 0.00 | 57 | 1017.2 |
| 20260902230428 | 32 | 41 | 1.6 | 1.6 | 0.00 | 0.00 | 0.00 | 57 | 1017.4 |
| 20260902225927 | 32 | 50 | 1.6 | 1.6 | 0.00 | 0.00 | 0.00 | 57 | 1017.4 |
| 20260902225423 | 32 | 91 | 0.0 | 1.6 | 0.00 | 0.00 | 0.00 | 60 | 1017.3 |
| 20260902224922 | 33 | 29 | 1.6 | 3.2 | 0.00 | 0.00 | 0.00 | 59 | 1017.3 |
| 20260902224421 | 33 | 51 | 0.0 | 1.6 | 0.00 | 0.00 | 0.00 | 59 | 1017.6 |
| 20260902223919 | 33 | 53 | 1.6 | 1.6 | 0.00 | 0.00 | 0.00 | 58 | 1017.5 |
| 20260902223419 | 33 | 75 | 0.0 | 0.0 | 0.00 | 0.00 | 0.00 | 59 | 1017.5 |
| 20260902222918 | 33 | 90 | 0.0 | 0.0 | 0.00 | 0.00 | 0.00 | 58 | 1017.5 |
| 20260902222417 | 33 | 97 | 0.0 | 0.0 | 0.00 | 0.00 | 0.00 | 59 | 1017.5 |
| 20260902221917 | 33 | 74 | 0.0 | 0.0 | 0.00 | 0.00 | 0.00 | 58 | 1017.4 |
| 20260902221416 | 33 | 147 | 1.6 | 1.6 | 0.00 | 0.00 | 0.00 | 58 | 1017.5 |
| 20260902220912 | 33 | 92 | 0.0 | 0.0 | 0.00 | 0.00 | 0.00 | 57 | 1017.6 |
| 20260902220411 | 33 | 60 | 1.6 | 1.6 | 0.00 | 0.00 | 0.00 | 58 | 1017.9 |
| 20260902215906 | 33 | 150 | 0.0 | 1.6 | 0.00 | 0.00 | 0.00 | 56 | 1017.5 |
| 20260902215402 | 33 | 46 | 1.6 | 1.6 | 0.00 | 0.00 | 0.00 | 55 | 1017.5 |
| 20260902214858 | 33 | 14 | 1.6 | 1.6 | 0.00 | 0.00 | 0.00 | 54 | 1017.7 |
| 20260902214357 | 34 | 224 | 0.0 | 0.0 | 0.00 | 0.00 | 0.00 | 53 | 1017.8 |
| 20260902213851 | 33 | 93 | 0.0 | 0.0 | 0.00 | 0.00 | 0.00 | 53 | 1017.5 |
| 20260902213348 | 33 | 63 | 0.0 | 0.0 | 0.00 | 0.00 | 0.00 | 53 | 1017.6 |
| 20260902212846 | 33 | 349 | 1.6 | 1.6 | 0.00 | 0.00 | 0.00 | 53 | 1017.3 |
| 20260902212343 | 33 | 146 | 0.0 | 1.6 | 0.00 | 0.00 | 0.00 | 53 | 1017.3 |
| 20260902211839 | 33 | 314 | 0.0 | 0.0 | 0.00 | 0.00 | 0.00 | 54 | 1017.7 |
| 20260902211334 | 33 | 113 | 0.0 | 0.0 | 0.00 | 0.00 | 0.00 | 53 | 1017.5 |
| 20260902210829 | 33 | 7 | 1.6 | 1.6 | 0.00 | 0.00 | 0.00 | 53 | 1017.9 |
| 20260902210329 | 33 | 248 | 1.6 | 1.6 | 0.00 | 0.00 | 0.00 | 54 | 1017.7 |
| 20260902205827 | 33 | 93 | 3.2 | 3.2 | 0.00 | 0.00 | 0.00 | 53 | 1017.8 |
| 20260902205322 | 33 | 57 | 0.0 | 0.0 | 0.00 | 0.00 | 0.00 | 54 | 1017.7 |
| 20260902204818 | 33 | 46 | 4.8 | 4.8 | 0.00 | 0.00 | 0.00 | 53 | 1017.8 |
| 20260902204312 | 33 | 36 | 1.6 | 3.2 | 0.00 | 0.00 | 0.00 | 54 | 1017.8 |
| 20260902203808 | 34 | 10 | 3.2 | 4.8 | 0.00 | 0.00 | 0.00 | 53 | 1017.8 |
| 20260902203302 | 34 | 283 | 1.6 | 1.6 | 0.00 | 0.00 | 0.00 | 54 | 1017.7 |
| 20260902202757 | 34 | 62 | 0.0 | 1.6 | 0.00 | 0.00 | 0.00 | 54 | 1017.8 |
| 20260902202254 | 34 | 84 | 0.0 | 0.0 | 0.00 | 0.00 | 0.00 | 53 | 1017.7 |
| 20260902201750 | 33 | 156 | 3.2 | 3.2 | 0.00 | 0.00 | 0.00 | 54 | 1017.9 |
| 20260902201249 | 33 | 75 | 1.6 | 1.6 | 0.00 | 0.00 | 0.00 | 52 | 1018.0 |
| 20260902200744 | 33 | 272 | 1.6 | 1.6 | 0.00 | 0.00 | 0.00 | 54 | 1018.0 |
| 20260902200240 | 33 | 125 | 3.2 | 3.2 | 0.00 | 0.00 | 0.00 | 53 | 1018.0 |
| 20260902195735 | 33 | 70 | 4.8 | 4.8 | 0.00 | 0.00 | 0.00 | 52 | 1018.3 |
| 20260902195234 | 33 | 261 | 0.0 | 1.6 | 0.00 | 0.00 | 0.00 | 54 | 1018.2 |
| 20260902194734 | 33 | 75 | 0.0 | 0.0 | 0.00 | 0.00 | 0.00 | 54 | 1018.1 |
| 20260902194229 | 34 | 135 | 3.2 | 3.2 | 0.00 | 0.00 | 0.00 | 54 | 1018.3 |
| 20260902193725 | 34 | 294 | 0.0 | 0.0 | 0.00 | 0.00 | 0.00 | 52 | 1018.4 |
| 20260902193220 | 33 | 46 | 0.0 | 1.6 | 0.00 | 0.00 | 0.00 | 51 | 1018.5 |
| 20260902192719 | 33 | 284 | 1.6 | 1.6 | 0.00 | 0.00 | 0.00 | 52 | 1018.8 |
| 20260902192218 | 33 | 281 | 1.6 | 1.6 | 0.00 | 0.00 | 0.00 | 53 | 1018.4 |
| 20260902191718 | 33 | 304 | 1.6 | 1.6 | 0.00 | 0.00 | 0.00 | 54 | 1018.8 |
| 20260902191213 | 34 | 123 | 1.6 | 1.6 | 0.00 | 0.00 | 0.00 | 55 | 1018.8 |
| 20260902190709 | 34 | 115 | 1.6 | 1.6 | 0.00 | 0.00 | 0.00 | 54 | 1018.9 |
| 20260902190208 | 34 | 294 | 1.6 | 1.6 | 0.00 | 0.00 | 0.00 | 56 | 1018.9 |
| 20260902185704 | 34 | 105 | 0.0 | 0.0 | 0.00 | 0.00 | 0.00 | 55 | 1019.0 |
| 20260902185201 | 34 | 330 | 4.8 | 8.0 | 0.00 | 0.00 | 0.00 | 55 | 1019.0 |
| 20260902184655 | 34 | 61 | 3.2 | 3.2 | 0.00 | 0.00 | 0.00 | 56 | 1019.1 |
| 20260902184151 | 34 | 244 | 1.6 | 1.6 | 0.00 | 0.00 | 0.00 | 54 | 1019.2 |
| 20260902183646 | 33 | 283 | 0.0 | 0.0 | 0.00 | 0.00 | 0.00 | 57 | 1019.1 |
| 20260902183143 | 33 | 31 | 1.6 | 1.6 | 0.00 | 0.00 | 0.00 | 58 | 1019.3 |
| 20260902182639 | 32 | 340 | 0.0 | 0.0 | 0.00 | 0.00 | 0.00 | 61 | 1019.5 |
| 20260902182135 | 33 | 287 | 1.6 | 1.6 | 0.00 | 0.00 | 0.00 | 60 | 1019.5 |
| 20260902181631 | 33 | 63 | 0.0 | 0.0 | 0.00 | 0.00 | 0.00 | 59 | 1019.5 |
| 20260902181130 | 33 | 44 | 0.0 | 0.0 | 0.00 | 0.00 | 0.00 | 58 | 1019.4 |
| 20260902180630 | 34 | 52 | 3.2 | 3.2 | 0.00 | 0.00 | 0.00 | 57 | 1019.2 |
| 20260902180126 | 34 | 76 | 1.6 | 1.6 | 0.00 | 0.00 | 0.00 | 56 | 1019.5 |
| 20260902175626 | 33 | 325 | 0.0 | 0.0 | 0.00 | 0.00 | 0.00 | 56 | 1019.6 |
| 20260902175121 | 34 | 306 | 0.0 | 0.0 | 0.00 | 0.00 | 0.00 | 55 | 1019.6 |
| 20260902174618 | 33 | 302 | 1.6 | 1.6 | 0.00 | 0.00 | 0.00 | 58 | 1019.5 |
| 20260902174113 | 33 | 26 | 1.6 | 3.2 | 0.00 | 0.00 | 0.00 | 58 | 1019.6 |
| 20260902173608 | 33 | 139 | 0.0 | 0.0 | 0.00 | 0.00 | 0.00 | 59 | 1019.7 |
| 20260902173103 | 33 | 187 | 1.6 | 1.6 | 0.00 | 0.00 | 0.00 | 61 | 1019.7 |
| 20260902172603 | 33 | 115 | 3.2 | 3.2 | 0.00 | 0.00 | 0.00 | 61 | 1019.8 |
| 20260902172057 | 33 | 40 | 1.6 | 3.2 | 0.00 | 0.00 | 0.00 | 61 | 1019.9 |
| 20260902171553 | 34 | 125 | 0.0 | 1.6 | 0.00 | 0.00 | 0.00 | 58 | 1020.1 |
| 20260902171049 | 34 | 86 | 0.0 | 1.6 | 0.00 | 0.00 | 0.00 | 58 | 1020.1 |
| 20260902170544 | 33 | 129 | 0.0 | 0.0 | 0.00 | 0.00 | 0.00 | 58 | 1020.0 |
| 20260902170040 | 33 | 127 | 3.2 | 3.2 | 0.00 | 0.00 | 0.00 | 61 | 1020.1 |
| 20260902165539 | 33 | 106 | 1.6 | 1.6 | 0.00 | 0.00 | 0.00 | 63 | 1020.2 |
| 20260902165039 | 32 | 168 | 1.6 | 1.6 | 0.00 | 0.00 | 0.00 | 66 | 1020.0 |
| 20260902164535 | 33 | 93 | 1.6 | 1.6 | 0.00 | 0.00 | 0.00 | 65 | 1020.2 |
| 20260902164033 | 33 | 314 | 1.6 | 1.6 | 0.00 | 0.00 | 0.00 | 63 | 1020.2 |
| 20260902163529 | 33 | 93 | 0.0 | 0.0 | 0.00 | 0.00 | 0.00 | 64 | 1020.4 |
| 20260902163028 | 32 | 1 | 3.2 | 3.2 | 0.00 | 0.00 | 0.00 | 66 | 1020.4 |
| 20260902162527 | 32 | 19 | 4.8 | 4.8 | 0.00 | 0.00 | 0.00 | 68 | 1020.5 |
| 20260902162023 | 32 | 110 | 1.6 | 1.6 | 0.00 | 0.00 | 0.00 | 68 | 1020.6 |
| 20260902161517 | 32 | 69 | 1.6 | 1.6 | 0.00 | 0.00 | 0.00 | 67 | 1020.5 |
| 20260902161013 | 32 | 81 | 3.2 | 3.2 | 0.00 | 0.00 | 0.00 | 67 | 1020.7 |
| 20260902160509 | 31 | 144 | 0.0 | 1.6 | 0.00 | 0.00 | 0.00 | 69 | 1020.7 |
| 20260902160010 | 31 | 83 | 1.6 | 1.6 | 0.00 | 0.00 | 0.00 | 68 | 1020.7 |
| 20260902155502 | 31 | 147 | 1.6 | 1.6 | 0.00 | 0.00 | 0.00 | 69 | 1020.8 |
| 20260902155001 | 32 | 15 | 1.6 | 3.2 | 0.00 | 0.00 | 0.00 | 67 | 1020.7 |
| 20260902154456 | 32 | 36 | 1.6 | 1.6 | 0.00 | 0.00 | 0.00 | 66 | 1021.0 |
| 20260902153951 | 32 | 14 | 0.0 | 0.0 | 0.00 | 0.00 | 0.00 | 65 | 1020.9 |
| 20260902153449 | 32 | 92 | 0.0 | 1.6 | 0.00 | 0.00 | 0.00 | 66 | 1020.9 |
| 20260902152945 | 32 | 134 | 0.0 | 1.6 | 0.00 | 0.00 | 0.00 | 68 | 1020.8 |
| 20260902152441 | 31 | 98 | 0.0 | 0.0 | 0.00 | 0.00 | 0.00 | 69 | 1021.1 |
| 20260902151937 | 30 | 151 | 0.0 | 1.6 | 0.00 | 0.00 | 0.00 | 71 | 1020.8 |
| 20260902151433 | 30 | 78 | 1.6 | 1.6 | 0.00 | 0.00 | 0.00 | 72 | 1020.9 |
| 20260902150932 | 30 | 126 | 1.6 | 1.6 | 0.00 | 0.00 | 0.00 | 70 | 1020.9 |
| 20260902150429 | 31 | 118 | 0.0 | 0.0 | 0.00 | 0.00 | 0.00 | 71 | 1020.9 |
| 20260902145928 | 30 | 72 | 0.0 | 1.6 | 0.00 | 0.00 | 0.00 | 72 | 1020.9 |
| 20260902145424 | 30 | 88 | 1.6 | 1.6 | 0.00 | 0.00 | 0.00 | 73 | 1021.0 |
| 20260902144918 | 30 | 37 | 1.6 | 3.2 | 0.00 | 0.00 | 0.00 | 71 | 1020.8 |
| 20260902144414 | 30 | 69 | 0.0 | 0.0 | 0.00 | 0.00 | 0.00 | 73 | 1020.9 |
| 20260902143914 | 29 | 129 | 3.2 | 4.8 | 0.00 | 0.00 | 0.00 | 74 | 1021.0 |
| 20260902143409 | 30 | 150 | 4.8 | 4.8 | 0.00 | 0.00 | 0.00 | 72 | 1020.8 |
| 20260902142904 | 28 | 105 | 0.0 | 0.0 | 0.00 | 0.00 | 0.00 | 75 | 1020.9 |
| 20260902142401 | 28 | 131 | 1.6 | 1.6 | 0.00 | 0.00 | 0.00 | 77 | 1021.0 |
| 20260902141856 | 29 | 130 | 1.6 | 1.6 | 0.00 | 0.00 | 0.00 | 74 | 1020.9 |
| 20260902141351 | 28 | 83 | 1.6 | 1.6 | 0.00 | 0.00 | 0.00 | 76 | 1020.8 |
| 20260902140850 | 28 | 88 | 0.0 | 0.0 | 0.00 | 0.00 | 0.00 | 79 | 1020.9 |
| 20260902140346 | 28 | 24 | 1.6 | 3.2 | 0.00 | 0.00 | 0.00 | 80 | 1020.7 |
| 20260902135846 | 27 | 94 | 0.0 | 0.0 | 0.00 | 0.00 | 0.00 | 83 | 1020.8 |
| 20260902135342 | 26 | 47 | 0.0 | 0.0 | 0.00 | 0.00 | 0.00 | 85 | 1020.8 |
| 20260902134840 | 26 | 192 | 0.0 | 1.6 | 0.00 | 0.00 | 0.00 | 86 | 1020.8 |
| 20260902134336 | 26 | 272 | 0.0 | 0.0 | 0.00 | 0.00 | 0.00 | 86 | 1020.9 |
| 20260902133831 | 26 | 34 | 4.8 | 4.8 | 0.00 | 0.00 | 0.00 | 87 | 1020.8 |
| 20260902133331 | 26 | 77 | 0.0 | 0.0 | 0.00 | 0.00 | 0.00 | 88 | 1021.0 |